Fort Myers, FL

12:22 PM EST on December 08, 2016 (GMT -0500)
Southwest Florida International

Weather History for KRSW - September, 2013

Change the Weather History Date:

Friday, September 13, 2013

  Actual Average Record
Temperature  
Mean Temperature 80 °F -  
Max Temperature 90 °F 90 °F 98 °F (1996)
Min Temperature 71 °F 74 °F 69 °F (1996)
Cooling Degree Days 14    
Growing Degree Days 30 (Base 50)    
Moisture  
Dew Point 71 °F    
Average Humidity 81    
Maximum Humidity 100    
Minimum Humidity 55    
Precipitation  
Precipitation 0.00 in - - ()
Sea Level Pressure  
Sea Level Pressure 29.88 in    
Wind  
Wind Speed 3 mph (ENE)    
Max Wind Speed 9 mph    
Max Gust Speed -    
Visibility 9 miles    
Events Fog    
Averages and records for this station are not official NWS values.
T = Trace of Precipitation, MM = Missing Value Source: NWS Daily Summary

Daily Weather History Graph

Daily Weather History Graph

Search for Another Location

Airport or City:

Trip Planner

Search our weather history database for the weather conditions in past years. The results will help you decide how hot, cold, wet, or windy it might be!

Date:

Astronomy

Sep. 13, 2013 Rise Set
Actual Time 7:11 AM EDT 7:33 PM EDT
Civil Twilight 6:48 AM EDT 7:56 PM EDT
Nautical Twilight 6:21 AM EDT 8:23 PM EDT
Astronomical Twilight 5:54 AM EDT 8:51 PM EDT
Moon 2:58 PM EDT (9/13) 1:04 AM EDT (9/13)
Length of Visible Light 13h 07m
Length of Day
12h 21m
First Quarter, 61% of the Moon is Illuminated
Sep 13
First Quarter
Sep 19
Full
Sep 26
Last Quarter
Oct 4
New
Oct 11
First Quarter

Hourly Weather History & Observations

Time (EDT) Temp. Heat Index Dew Point Humidity Pressure Visibility Wind Dir Wind Speed Gust Speed Precip Events Conditions
12:50 AM 73.4 °F - 71.6 °F 94% 29.91 in 10.0 mi ENE 6.9 mph - N/A   Scattered Clouds
12:53 AM 73.0 °F - 72.0 °F 96% 29.91 in 10.0 mi East 6.9 mph - N/A   Scattered Clouds
1:04 AM 73.4 °F - 71.6 °F 94% 29.92 in 10.0 mi East 6.9 mph - N/A   Mostly Cloudy
1:53 AM 73.0 °F - 72.0 °F 96% 29.90 in 10.0 mi East 5.8 mph - N/A   Mostly Cloudy
2:09 AM 73.4 °F - 71.6 °F 94% 29.91 in 10.0 mi ENE 4.6 mph - N/A   Scattered Clouds
2:53 AM 73.0 °F - 72.0 °F 96% 29.89 in 10.0 mi Calm Calm - N/A   Clear
3:53 AM 73.0 °F - 72.0 °F 96% 29.88 in 10.0 mi Calm Calm - N/A   Clear
4:53 AM 73.9 °F - 71.1 °F 91% 29.87 in 10.0 mi Calm Calm - N/A   Clear
5:53 AM 73.0 °F - 71.1 °F 93% 29.87 in 10.0 mi Calm Calm - N/A   Clear
6:53 AM 73.0 °F - 71.1 °F 93% 29.89 in 10.0 mi Calm Calm - N/A   Clear
7:41 AM 73.4 °F - 71.6 °F 94% 29.90 in 10.0 mi Calm Calm - N/A   Partly Cloudy
7:53 AM 73.0 °F - 72.0 °F 96% 29.90 in 10.0 mi East 3.5 mph - N/A   Mostly Cloudy
8:03 AM 73.4 °F - 71.6 °F 94% 29.90 in 1.2 mi Calm Calm - N/A   Mostly Cloudy
8:10 AM 71.6 °F - 71.6 °F 100% 29.90 in 0.5 mi Calm Calm - N/A Fog Fog
8:18 AM 73.4 °F - 71.6 °F 94% 29.90 in 3.0 mi Calm Calm - N/A   Mostly Cloudy
8:32 AM 73.4 °F - 71.6 °F 94% 29.91 in 10.0 mi Calm Calm - N/A   Scattered Clouds
8:53 AM 75.0 °F - 73.0 °F 94% 29.91 in 10.0 mi Calm Calm - N/A   Partly Cloudy
9:53 AM 79.0 °F - 73.0 °F 82% 29.91 in 10.0 mi Calm Calm - N/A   Clear
10:53 AM 82.9 °F 88.0 °F 72.0 °F 69% 29.91 in 10.0 mi Calm Calm - N/A   Clear
11:53 AM 84.9 °F 90.1 °F 71.1 °F 63% 29.90 in 10.0 mi Calm Calm - N/A   Clear
12:53 PM 86.0 °F 90.7 °F 70.0 °F 59% 29.89 in 10.0 mi South 5.8 mph - N/A   Partly Cloudy
1:53 PM 88.0 °F 92.9 °F 70.0 °F 55% 29.86 in 10.0 mi Variable 3.5 mph - N/A   Scattered Clouds
2:53 PM 87.1 °F 91.3 °F 69.1 °F 55% 29.84 in 10.0 mi NW 4.6 mph - N/A   Mostly Cloudy
3:53 PM 87.1 °F 92.8 °F 71.1 °F 59% 29.83 in 10.0 mi West 5.8 mph - N/A   Partly Cloudy
4:53 PM 88.0 °F 93.8 °F 71.1 °F 57% 29.81 in 10.0 mi WSW 9.2 mph - 0.00 in   Overcast
5:53 PM 86.0 °F 93.0 °F 73.0 °F 65% 29.82 in 10.0 mi ENE 6.9 mph - N/A   Mostly Cloudy
6:53 PM 86.0 °F 91.5 °F 71.1 °F 61% 29.83 in 10.0 mi Variable 4.6 mph - N/A   Mostly Cloudy
7:43 PM 84.2 °F 88.4 °F 69.8 °F 62% 29.83 in 10.0 mi Calm Calm - N/A   Partly Cloudy
7:53 PM 82.9 °F 87.0 °F 70.0 °F 65% 29.83 in 10.0 mi Calm Calm - N/A   Partly Cloudy
8:53 PM 82.0 °F 86.3 °F 71.1 °F 69% 29.84 in 10.0 mi Calm Calm - N/A   Clear
9:53 PM 81.0 °F 84.9 °F 71.1 °F 72% 29.86 in 10.0 mi Calm Calm - N/A   Clear
10:53 PM 80.1 °F 83.8 °F 72.0 °F 76% 29.86 in 10.0 mi Calm Calm - N/A   Clear
11:53 PM 79.0 °F - 73.0 °F 82% 29.87 in 10.0 mi Calm Calm - N/A   Clear